799  
AXUS43 KGID 021902  
MISGRI  
 
GID CWA HOURLY WEATHER ROUNDUP  
NATIONAL WEATHER SERVICE HASTINGS NE  
100 PM CST FRI DEC 02 2016  
 
NOTE: "FAIR" INDICATES FEW OR NO CLOUDS BELOW 12,000 FEET WITH NO  
SIGNIFICANT WEATHER AND/OR OBSTRUCTIONS TO VISIBILITY.  
   
..SOUTH CENTRAL NEBRASKA
 
 
 
CITY SKY/WX TMP DP RH WIND PRES REMARKS  
GRAND ISLAND SUNNY 39 26 59 CALM 30.27F  
HASTINGS SUNNY 40 27 59 CALM 30.27F  
KEARNEY SUNNY 37 25 60 CALM 30.26F  
ORD SUNNY 39 23 52 NW5 30.26S  
YORK SUNNY 37 27 65 CALM 30.28F  
AURORA SUNNY 39 26 60 CALM 30.27F  
LEXINGTON SUNNY 37 26 62 CALM 30.25F  
HOLDREGE SUNNY 38 25 60 CALM 30.26S  
HEBRON SUNNY 41 27 57 CALM 30.28S  
   
..NEBRASKA PANHANDLE
 
 
 
CITY SKY/WX TMP DP RH WIND PRES REMARKS  
CHADRON SUNNY 42 22 44 W6 30.20F  
ALLIANCE MOSUNNY 41 22 46 VRB5 30.19F  
SCOTTSBLUFF SUNNY 39 24 55 W5 30.21F  
SIDNEY CLOUDY 37 24 59 CALM 30.22F  
   
..WESTERN AND NORTH CENTRAL NEBRASKA
 
 
 
CITY SKY/WX TMP DP RH WIND PRES REMARKS  
VALENTINE PTSUNNY 39 22 50 NW8 30.23S WCI 33  
AINSWORTH SUNNY 37 26 64 CALM 30.23F  
ONEILL PTSUNNY 34 26 74 NW3 30.26S  
BROKEN BOW SUNNY 40 25 55 S5 30.24F  
IMPERIAL MOSUNNY 42 24 49 N8 30.23F  
NORTH PLATTE SUNNY 40 23 50 CALM 30.24F  
MCCOOK CLOUDY 39 23 52 CALM 30.25F  
   
..EASTERN NEBRASKA
 
 
 
CITY SKY/WX TMP DP RH WIND PRES REMARKS  
NORFOLK CLOUDY 34 26 72 W8 30.28R WCI 27  
SO SIOUX CITY CLOUDY 39 30 70 NW7 30.28S WCI 34  
TEKAMAH CLOUDY 37 30 75 CALM 30.30R  
COLUMBUS PTSUNNY 39 28 65 CALM 30.30S  
ALBION PTSUNNY 36 27 69 W3 30.28R  
OMAHA EPPLEY PTSUNNY 40 29 64 CALM 30.30R  
OFFUTT AFB MOSUNNY 42 30 63 NW6 30.29R  
MILLARD MOSUNNY 41 30 64 CALM 30.30S  
LINCOLN SUNNY 44 29 55 NW3 30.30F  
NEBRASKA CITY SUNNY 41 27 57 NW3 30.28F  
BEATRICE SUNNY 42 28 59 CALM 30.27F  
FALLS CITY SUNNY 42 29 59 NW5 30.28F  
   
..NORTHERN KANSAS
 
 
 
CITY SKY/WX TMP DP RH WIND PRES REMARKS  
GOODLAND CLOUDY 39 15 37 VRB3 30.22S  
HILL CITY PTSUNNY 43 20 39 N5 30.26F  
NORTON CLEAR 41 18 38 NW3 30.25  
PHILLIPSBURG SUNNY 41 25 52 CALM 30.27S  
SMITH CENTER SUNNY 41 25 52 N3 30.28R  
BELOIT SUNNY 43 23 45 CALM 30.27S  
HAYS MOSUNNY 44 20 38 N7 30.26S  
RUSSELL MOSUNNY 44 23 43 N6 30.24F  
CONCORDIA SUNNY 42 27 55 NE3 30.26F  
SALINA CLOUDY 47 26 44 N3 30.28R  
TOPEKA SUNNY 50 28 42 CALM 30.28S  
 
CLICK HERE TO GO TO PREVIOUS BULLETINS.

The Nexlab NE Page
The Nexlab KS Page Main Text Page